Weather past 2 weeks in Willemstad, Curaçao

Now
82 °F

Passing clouds.


Feels Like: 89 °F
Forecast: 82 / 89 °F
Wind: 15 mph from East

Location: Hato Airport - Curacao

Current Time: Nov 24, 2014 at 5:39:31 AM

Latest Report: Nov 24, 2014 at 4:00 AM


Visibility: N/A

Pressure: 29.86 "Hg

Humidity: 79%

Dew point: 75 °F

Location of WillemstadLocation

Historic Weather in Willemstad — Graph

°F

Willemstad temperature yesterday

Maximum temperature yesterday: 86 °F (at 10:00 AM)
Minimum temperature yesterday: 77 °F (at 6:00 AM)
Average temperature yesterday: 83 °F

Past Weeks' High & Low Weather Summary

 TemperatureHumidityPressure
High90 °F (Nov 9, 11:00 AM)94% (Nov 15, 8:00 AM)30.01 "Hg (Nov 15, 8:00 AM)
Low75 °F (Nov 14, 11:00 AM)66% (Nov 12, 9:00 AM)29.77 "Hg (Nov 9, 4:00 PM)
Average82 °F81%29.88 "Hg
* Reported Nov 9 5:00 AM — Nov 24 4:00 AM, Willemstad, Weather by CustomWeather, © 2014

Note: Actual official high and low records may vary slightly from our data, if they occured in-between our weather recording intervals... More about our weather records

Advertising

Willemstad weather history for previous 24 hours

 ConditionsComfort  
Time TempWeatherWind HumidityBarometerVisibility
4:00 AM
Nov 24
82 °FPassing clouds.15 mph79%29.86 "HgN/A
2:00 AM82 °FPassing clouds.14 mph74%29.86 "HgN/A
1:00 AM82 °FPassing clouds.16 mph74%29.89 "HgN/A
12:00 AM82 °FPassing clouds.16 mph79%29.89 "HgN/A
11:00 PM
Nov 23
82 °FPassing clouds.13 mph79%29.89 "HgN/A
10:00 PM82 °FPassing clouds.13 mph79%29.89 "HgN/A
9:00 PM82 °FPassing clouds.15 mph79%29.86 "HgN/A
8:00 PM82 °FPassing clouds.15 mph79%29.86 "HgN/A
7:00 PM82 °FPassing clouds.14 mph79%29.83 "HgN/A
6:00 PM82 °FPassing clouds.15 mph79%29.83 "HgN/A
5:00 PM84 °FScattered clouds.14 mph74%29.83 "HgN/A
4:00 PM86 °FScattered clouds.16 mph70%29.83 "HgN/A
3:00 PM82 °FPartly sunny.15 mph84%29.86 "HgN/A
2:00 PM84 °FScattered clouds.16 mph74%29.89 "HgN/A
1:00 PM84 °FSprinkles. Partly sunny.14 mph79%29.92 "HgN/A
12:00 PM84 °FPartly sunny.14 mph79%29.92 "HgN/A
11:00 AM86 °FScattered clouds.15 mph75%29.95 "HgN/A
10:00 AM86 °FScattered clouds.14 mph75%29.95 "HgN/A
9:00 AM84 °FPassing clouds.12 mph79%29.95 "HgN/A
8:00 AM81 °FPassing clouds.9 mph89%29.92 "HgN/A
7:00 AM79 °FScattered clouds.8 mph89%29.89 "HgN/A
6:00 AM77 °FPassing clouds.9 mph94%29.86 "HgN/A
Weather by CustomWeather, © 2014

See weather overviewHow to use our weather pages